"Pseudo-MPEC" for P10NLPC

Created 2019 May 21 9:07:16 UT using Find_Orb

Click here for an explanation of pseudo-MPECs

 
 Astrometry: 
     P10NLPC  C2019 05 09m.!Z]2t2M!^+qpAZLDia'$vnVl(g:V]-8g!J;hRqL7hv3#H1lc8pF51
     P10NLPC  C2019 05 09_a',inEQ-cCO?njaagAstrometry7*credacted;J-16SNN$g5+MF51
     P10NLPC  C2019 05 09XyM#+[A(d:P.UPJBBT+F;p\nD1L1W_Y126pG1x1%O@Z%jGx-H9W*F51
     P10NLPC  C2019 05 09a!o4gpk)VlsL:+K%dyEYC![Ac)4@3vB]dcSUi6f[/8OncUYcTXwxF51
     P10NLPC KC2019 05 113Xclickshereva.=N^91HWETC\Vfyey=sW:KkrEforA3-^akQsm-H21
     P10NLPC KC2019 05 11kJRH3*C^].^[o:-:f,\y9ta^L4Qexplanation3%!f%#Swav\E^tH21
     P10NLPC KC2019 05 11E?i`L*2@K:g/@U`TZt:?Mk'#'a!KZEeaOlsorEc9.*nI8(e2v^9BH21

Station data:
(F51) Pan-STARRS 1, Haleakala  (N20.707235 W156.255910)  US/Hawaii.
   Observers N. Primak, A. Schultz, S. Watters, J. Thiel, T. Goggia. Measurer
   PS1 Science Consortium. 1.8-m Ritchey-Chrétien + CCD.
(H21) Astronomical Research Observatory, Westfield  (N39.483057 W87.968270)
   US/Illinois. 0.76-m f/3.0 astrograph + CCD.

Orbital elements:  P10NLPC
   Perihelion 2019 Oct 26.220315 +/- 345 TT =  5:17:15 (JD 2458782.720315)
Epoch 2019 May 11.0 TT = JDT 2458614.5   Earth MOID: 0.4090   Ma: 0.0122
M 295.44903484 +/- 90               (J2000 ecliptic)          AutoNEOCP
n   0.38372871 +/- 0.19             Peri.  214.33232 +/- 60
a   1.87551201 +/- 0.618            Node   106.72980 +/- 40
e   0.2589529 +/- 0.25              Incl.   25.05447 +/- 32
P   2.57/938.15d           H 20.3   G  0.15   U 11.7  SR
q 1.38984267 +/- 0.906    Q 2.36118134 +/- 8.7
From 7 observations 2019 May 9-11 (42.1 hr); mean residual 0".10
Residuals in arcseconds: 
190509 F51  .01+  .03+    190509 F51  .00   .09-    190511 H21  .20+  .07+    
190509 F51  .05+  .08-    190511 H21  .23-  .03+    
190509 F51  .06-  .13+    190511 H21  .03+  .10-    

Ephemerides (geocentric):
Date (UTC) HH   RA              Dec         delta   r     elong  mag " sig PA
---- -- -- --  -------------   -----------  ------ ------ -----  --- ---- ---
2019 05 21 09  15 40 13.577   +25 33 29.20  .88530 1.7490 134.3 22.4 1120 139
2019 05 21 10  15 40 09.868   +25 33 12.07  .88519 1.7488 134.3 22.4 1129 139
2019 05 21 11  15 40 06.159   +25 32 54.86  .88507 1.7487 134.3 22.4 1138 139
2019 05 21 12  15 40 02.449   +25 32 37.57  .88496 1.7485 134.3 22.4 1148 139
2019 05 21 13  15 39 58.739   +25 32 20.21  .88484 1.7484 134.2 22.4 1157 139
2019 05 21 14  15 39 55.028   +25 32 02.76  .88473 1.7483 134.2 22.4 1166 139
2019 05 21 15  15 39 51.317   +25 31 45.24  .88462 1.7481 134.2 22.4 1175 139
2019 05 21 16  15 39 47.606   +25 31 27.65  .88450 1.7480 134.2 22.4 1185 139
2019 05 21 17  15 39 43.894   +25 31 09.97  .88439 1.7478 134.2 22.4 1194 139
2019 05 21 18  15 39 40.182   +25 30 52.22  .88428 1.7477 134.2 22.4 1204 139
2019 05 21 19  15 39 36.470   +25 30 34.39  .88416 1.7476 134.2 22.4 1213 139
2019 05 21 20  15 39 32.758   +25 30 16.49  .88405 1.7474 134.2 22.4 1223 139
2019 05 21 21  15 39 29.045   +25 29 58.51  .88394 1.7473 134.2 22.4 1232 139
2019 05 21 22  15 39 25.332   +25 29 40.44  .88383 1.7471 134.2 22.4 1242 139
2019 05 21 23  15 39 21.618   +25 29 22.31  .88372 1.7470 134.2 22.4 1252 139
2019 05 22 00  15 39 17.905   +25 29 04.09  .88360 1.7469 134.2 22.4 1261 139
2019 05 22 01  15 39 14.191   +25 28 45.80  .88349 1.7467 134.2 22.4 1271 139
2019 05 22 02  15 39 10.476   +25 28 27.43  .88338 1.7466 134.2 22.4 1281 139
2019 05 22 03  15 39 06.762   +25 28 08.98  .88327 1.7464 134.1 22.4 1291 139
2019 05 22 04  15 39 03.047   +25 27 50.45  .88316 1.7463 134.1 22.4 1301 139
2019 05 22 05  15 38 59.332   +25 27 31.85  .88305 1.7462 134.1 22.4 1311 139
2019 05 22 06  15 38 55.617   +25 27 13.17  .88294 1.7460 134.1 22.4 1320 139
2019 05 22 07  15 38 51.902   +25 26 54.41  .88283 1.7459 134.1 22.4 1330 139
2019 05 22 08  15 38 48.186   +25 26 35.58  .88272 1.7457 134.1 22.4 1341 139
2019 05 22 09  15 38 44.470   +25 26 16.66  .88261 1.7456 134.1 22.4 1351 139
2019 05 22 10  15 38 40.754   +25 25 57.67  .88251 1.7455 134.1 22.4 1361 139
2019 05 22 11  15 38 37.038   +25 25 38.60  .88240 1.7453 134.1 22.4 1371 139
2019 05 22 12  15 38 33.322   +25 25 19.46  .88229 1.7452 134.1 22.4 1381 139
2019 05 22 13  15 38 29.606   +25 25 00.24  .88218 1.7450 134.1 22.4 1392 139
2019 05 22 14  15 38 25.889   +25 24 40.93  .88207 1.7449 134.1 22.4 1402 139
2019 05 22 15  15 38 22.172   +25 24 21.55  .88197 1.7447 134.1 22.4 1412 139
2019 05 22 16  15 38 18.456   +25 24 02.10  .88186 1.7446 134.0 22.4 1423 139
2019 05 22 17  15 38 14.739   +25 23 42.56  .88175 1.7445 134.0 22.4 1433 139
2019 05 22 18  15 38 11.022   +25 23 22.95  .88164 1.7443 134.0 22.4 1444 139
2019 05 22 19  15 38 07.304   +25 23 03.26  .88154 1.7442 134.0 22.4 1454 139
2019 05 22 20  15 38 03.587   +25 22 43.49  .88143 1.7440 134.0 22.4 1465 139
2019 05 22 21  15 37 59.870   +25 22 23.65  .88133 1.7439 134.0 22.4 1475 139
2019 05 22 22  15 37 56.152   +25 22 03.73  .88122 1.7438 134.0 22.4 1486 139
2019 05 22 23  15 37 52.435   +25 21 43.72  .88111 1.7436 134.0 22.4 1497 139
2019 05 23 00  15 37 48.718   +25 21 23.65  .88101 1.7435 134.0 22.4 1508 139
2019 05 23 01  15 37 45.000   +25 21 03.49  .88090 1.7433 134.0 22.4 1518 139
2019 05 23 02  15 37 41.283   +25 20 43.25  .88080 1.7432 134.0 22.4 1529 139
2019 05 23 03  15 37 37.565   +25 20 22.94  .88069 1.7431 134.0 22.4 1540 139
2019 05 23 04  15 37 33.847   +25 20 02.55  .88059 1.7429 133.9 22.4 1551 139
2019 05 23 05  15 37 30.130   +25 19 42.08  .88049 1.7428 133.9 22.4 1562 139
2019 05 23 06  15 37 26.412   +25 19 21.54  .88038 1.7426 133.9 22.4 1573 138
2019 05 23 07  15 37 22.695   +25 19 00.92  .88028 1.7425 133.9 22.4 1584 138
2019 05 23 08  15 37 18.977   +25 18 40.21  .88018 1.7424 133.9 22.4 1595 138